This is the latest recevied weather packets stored in our database for station/object VE1DX. If no packets are shown the sender has not sent any weather packets the latest 10 day(s).
| Time | Temp. | Humidity | Pressure | Rain* | Wind** | Luminosity | Snow |
|---|---|---|---|---|---|---|---|
| 1777715417 | 5° C | 94% | 1011 hPa | 0 mm | - | - | - |
| 1777715117 | 4.44° C | 94% | 1011.1 hPa | 0 mm | - | - | - |
| 1777714817 | 4.44° C | 94% | 1011 hPa | 0 mm | - | - | - |
| 1777714517 | 4.44° C | 94% | 1010.8 hPa | 0 mm | - | - | - |
| 1777714217 | 3.89° C | 94% | 1010.7 hPa | 0 mm | - | - | - |
| 1777713917 | 3.89° C | 94% | 1010.7 hPa | 0 mm | - | - | - |
| 1777713617 | 3.33° C | 94% | 1010.6 hPa | 0 mm | - | - | - |
| 1777713317 | 3.33° C | 94% | 1010.6 hPa | 0 mm | - | - | - |
| 1777713017 | 3.89° C | 94% | 1010.5 hPa | 0 mm | - | - | - |
| 1777712717 | 3.89° C | 94% | 1010.4 hPa | 0 mm | - | - | - |
| 1777712417 | 3.89° C | 94% | 1010.3 hPa | 0 mm | - | - | - |
| 1777712117 | 4.44° C | 94% | 1010.2 hPa | 0 mm | - | - | - |
| 1777711817 | 4.44° C | 94% | 1010.2 hPa | 0 mm | - | - | - |
| 1777711517 | 4.44° C | 94% | 1010.3 hPa | 0 mm | - | - | - |
| 1777711217 | 4.44° C | 94% | 1010.2 hPa | 0 mm | - | - | - |
| 1777710917 | 4.44° C | 94% | 1010.1 hPa | 0 mm | - | - | - |
| 1777710617 | 5° C | 94% | 1010 hPa | 0 mm | - | - | - |
| 1777710317 | 5° C | 94% | 1010 hPa | 0 mm | - | - | - |
| 1777710017 | 5° C | 94% | 1009.8 hPa | 0 mm | - | - | - |
| 1777709717 | 5° C | 94% | 1009.9 hPa | 0 mm | - | - | - |
| 1777709417 | 5.56° C | 94% | 1009.9 hPa | 0 mm | - | - | - |
| 1777709117 | 5° C | 94% | 1009.9 hPa | 0 mm | - | - | - |
| 1777708817 | 5° C | 94% | 1009.9 hPa | 0 mm | - | - | - |
| 1777708517 | 5° C | 94% | 1009.9 hPa | 0 mm | - | - | - |
| 1777708217 | 5.56° C | 94% | 1009.8 hPa | 0.25 mm | - | - | - |
* Rain latest hour (hover to see other rain measurements)
** Current wind speed in m/s (hover to see current wind gust speed)